Куду-Кюёль

Россия / Республика Саха (Якутия)     59°26′26″N   121°18′35″E
темп.,
°C
ветер,
м/с
пор.,
м/с
влажн.,
%
обл.,
%
осадки,
мм/ч
давл.,
гПа
погр.,
м
27 февраля, сб
сб2700:00−24вюв1195100 0.0 102320
03:00−24вюв0097100 0.0 102220
06:00−22с1299100 0.1 102169
09:00−22сз1398100 0.8 1021224
12:00−20сз3595100 0.7 1021599
15:00−19сз4791100 1.1 10201028
18:00−21сз5993100 0.3 10231135
21:00−22сз41094100 0.6 10241257
28 февраля, вс
вс2800:00−23зсз51192100 0.2 10251107
03:00−24зсз41187100 0.2 1027969
06:00−26зсз51284100 0.0 1029793
09:00−28з3129099 0.0 1031516
12:00−24зсз6117977 0.0 10321436
15:00−23зсз587988 0.1 10321599
18:00−25з2694100 0.1 1033201
21:00−29з129591 0.1 103419
1 марта, пн
пн100:00−31зюз119750 0.0 103519
03:00−32юз129971 0.0 103419
06:00−34юз119959 0.0 103519
09:00−33ююз119644 0.0 103419
12:00−25юз138739 0.0 1032480
15:00−22зсз347470 0.1 10301465
18:00−25з1190100 0.0 103019
21:00−31юз009480 0.0 103019
2 марта, вт
вт200:00−32ююв119924 0.0 102919
03:00−34ююв1110032 0.0 102819
06:00−35вюв1110043 0.0 102719
09:00−33вюв119951 0.0 102619
12:00−25вюв128777 0.0 1023348
15:00−22вюв238177 0.0 1020677
18:00−24всв1292100 0.0 102023
21:00−29св229395 0.0 102119
3 марта, ср
ср300:00−31св229487 0.0 102119
03:00−33ссв129684 0.0 102119
06:00−35ссв119858 0.0 102219
09:00−34с129762 0.0 102329
12:00−27с238989 0.0 1022403
15:00−24с349094 0.0 1021658
18:00−27ссз2396100 0.0 102262
21:00−31сз2299100 0.1 102519